Location: Unspecified
(0.0000°N, 0.0000°E)
Time: 22:29:56
(UTC+00:00)

Tiros 1 despin weight - All Passes

Search period start: 05 March 2015 00:00
Search period end: 15 March 2015 00:00
Orbit: 599 x 648 km, 48.2° (Epoch: 04 March)

Date Brightness Start Highest point End Pass type
(mag) Time Alt. Az. Time Alt. Az. Time Alt. Az.
05 Mar - 01:34:44 10° SSW 01:39:00 45° SE 01:43:15 10° NE night (unlit)
05 Mar - 03:18:37 10° WNW 03:20:39 12° NW 03:22:26 10° NNW night (unlit)
05 Mar - 13:43:21 10° NW 13:48:01 80° NE 13:52:45 10° SE daylight
06 Mar - 01:52:56 10° SW 01:57:20 58° NW 02:01:40 10° NNE night (unlit)
06 Mar - 12:21:40 10° N 12:24:44 18° NE 12:27:59 10° E daylight
06 Mar - 14:02:04 10° WNW 14:06:23 35° SW 14:10:41 10° SSE daylight
07 Mar - 00:30:20 10° S 00:34:08 27° SE 00:37:57 10° ENE night (unlit)
07 Mar - 02:12:21 10° W 02:15:43 20° NW 02:18:56 10° N night (unlit)
07 Mar - 12:38:40 10° NNW 12:43:08 48° NE 12:47:42 10° SE daylight
07 Mar - 14:22:26 10° W 14:24:52 14° SW 14:27:05 10° SSW daylight
08 Mar - 00:48:00 10° SW 00:52:29 82° SE 00:56:55 10° NE night (unlit)
08 Mar - 11:18:40 10° NE 11:19:45 11° NE 11:21:08 10° ENE daylight
08 Mar - 12:56:53 10° NW 13:01:28 58° SW 13:06:07 10° SSE daylight
08 Mar - 23:26:17 10° S 23:29:12 17° SE 23:32:15 10° E night (unlit)
09 Mar - 01:06:46 10° WSW 01:10:49 33° NW 01:14:47 10° NNE night (unlit)
09 Mar - 11:34:14 10° N 11:38:14 29° NE 11:42:21 10° ESE daylight
09 Mar - 13:16:16 10° W 13:19:52 21° SW 13:23:24 10° S daylight
09 Mar - 23:43:17 10° SSW 23:47:37 48° SE 23:51:56 10° NE night (unlit)
10 Mar - 01:27:30 10° WNW 01:29:16 12° NW 01:30:47 10° NNW night (unlit)
10 Mar - 11:51:56 10° NW 11:56:34 85° NE 12:01:17 10° SE daylight
10 Mar - 22:23:17 10° SE 22:24:12 11° SE 22:25:24 10° ESE night (unlit)
11 Mar - 00:01:32 10° SW 00:05:56 55° NW 00:10:17 10° NNE night (unlit)
11 Mar - 10:30:08 10° N 10:33:17 19° NE 10:36:37 10° E daylight
11 Mar - 12:10:42 10° WNW 12:14:55 33° SW 12:19:08 10° SSE daylight
11 Mar - 22:38:47 10° S 22:42:43 29° SE 22:46:39 10° ENE night (unlit)
12 Mar - 00:21:01 10° W 00:24:18 19° NW 00:27:26 10° N night (unlit)
12 Mar - 10:47:12 10° NNW 10:51:40 51° NE 10:56:13 10° SE daylight
12 Mar - 12:31:14 10° WSW 12:33:24 13° SW 12:35:19 10° SSW daylight
12 Mar - 22:56:31 10° SW 23:01:03 88° SE 23:05:30 10° NE night (unlit)
13 Mar - 09:26:55 10° NNE 09:28:16 11° NE 09:29:55 10° ENE daylight
13 Mar - 11:05:27 10° NW 11:09:58 55° SW 11:14:33 10° SSE daylight
13 Mar - 21:34:37 10° S 21:37:44 19° SE 21:40:58 10° E night (unlit)
13 Mar - 23:15:19 10° WSW 23:19:21 31° NW 23:23:17 10° NNE night (unlit)
14 Mar - 09:42:42 10° NNW 09:46:43 31° NE 09:50:52 10° ESE daylight
14 Mar - 11:24:54 10° W 11:28:21 20° SW 11:31:43 10° S daylight
14 Mar - 21:51:42 10° SSW 21:56:08 52° SE 22:00:30 10° NE night (unlit)
14 Mar - 23:36:16 10° WNW 23:37:48 11° NW 23:39:03 10° NNW night (unlit)
